SHT1333 EGLL-EGJB

Flight info

Callsign SHT1333
Flight time 0h 35m
Altitude 19000
Route GASGU N866 SAM/N0362F180 N63 LELNA
Aircraft A20N/M-SDE2E3FGHIRWXY/LB1

Departure

Time 2026-04-20 20:26
Airport London Heathrow Airport (EGLL)

Arrival

Time 2026-04-20 21:01
Airport Guernsey Airport (EGJB)
Time Latitude Longitude Altitude Speed Heading
2026-04-20 20:23 51.46877 -0.48797 89 ft 0 kts 90°
2026-04-20 20:23 51.46877 -0.48776 89 ft 9 kts 90°
2026-04-20 20:24 51.46878 -0.48601 89 ft 16 kts 89°
2026-04-20 20:24 51.46847 -0.48472 90 ft 21 kts 159°
2026-04-20 20:24 51.46697 -0.48468 89 ft 0 kts 179°
2026-04-20 20:24 51.46677 -0.48468 89 ft 0 kts 179°
2026-04-20 20:25 51.46623 -0.48467 89 ft 18 kts 179°
2026-04-20 20:25 51.46476 -0.48366 91 ft 28 kts 93°
2026-04-20 20:25 51.46482 -0.47838 92 ft 83 kts 90°
2026-04-20 20:25 51.46487 -0.46456 109 ft 159 kts 86°
2026-04-20 20:26 51.46501 -0.44614 781 ft 168 kts 88°
2026-04-20 20:26 51.46492 -0.42757 1809 ft 165 kts 91°
2026-04-20 20:26 51.46164 -0.40823 2410 ft 201 kts 112°
2026-04-20 20:26 51.45386 -0.38719 2879 ft 233 kts 120°
2026-04-20 20:27 51.44437 -0.36511 3565 ft 245 kts 122°
2026-04-20 20:27 51.43294 -0.34410 4339 ft 257 kts 136°
2026-04-20 20:27 51.41700 -0.32997 5102 ft 270 kts 161°
2026-04-20 20:27 51.39810 -0.32811 5744 ft 279 kts 191°
2026-04-20 20:28 51.38032 -0.34064 6563 ft 282 kts 217°
2026-04-20 20:28 51.36519 -0.36037 7484 ft 283 kts 223°
2026-04-20 20:28 51.35044 -0.38160 8450 ft 284 kts 224°
2026-04-20 20:28 51.33572 -0.40287 9421 ft 286 kts 223°
2026-04-20 20:29 51.32088 -0.42427 10326 ft 289 kts 224°
2026-04-20 20:29 51.30715 -0.44856 10887 ft 304 kts 239°
2026-04-20 20:29 51.29813 -0.48023 11245 ft 324 kts 253°
2026-04-20 20:29 51.29128 -0.51559 11718 ft 341 kts 255°
2026-04-20 20:30 51.28459 -0.55227 12509 ft 347 kts 255°
2026-04-20 20:30 51.27773 -0.58947 13433 ft 350 kts 255°
2026-04-20 20:30 51.27073 -0.62684 14336 ft 353 kts 255°
2026-04-20 20:30 51.26370 -0.66399 15176 ft 355 kts 255°
2026-04-20 20:31 51.25650 -0.70177 16031 ft 356 kts 256°
2026-04-20 20:31 51.24923 -0.73972 16855 ft 359 kts 256°
2026-04-20 20:31 51.24191 -0.77784 17663 ft 361 kts 256°
2026-04-20 20:31 51.23452 -0.81623 18466 ft 363 kts 257°
2026-04-20 20:32 51.22706 -0.85489 19007 ft 366 kts 257°
2026-04-20 20:32 51.21954 -0.89371 19233 ft 366 kts 257°
2026-04-20 20:32 51.21146 -0.93227 19261 ft 369 kts 252°
2026-04-20 20:32 51.19899 -0.96837 19260 ft 377 kts 238°
2026-04-20 20:33 51.18206 -1.00096 19265 ft 381 kts 232°
2026-04-20 20:33 51.16351 -1.03133 19265 ft 384 kts 229°
2026-04-20 20:33 51.14412 -1.06062 19266 ft 384 kts 228°
2026-04-20 20:33 51.12475 -1.08909 19263 ft 385 kts 227°
2026-04-20 20:34 51.10479 -1.11840 19265 ft 384 kts 228°
2026-04-20 20:34 51.08526 -1.14739 19262 ft 384 kts 228°
2026-04-20 20:34 51.06582 -1.17659 19264 ft 384 kts 228°
2026-04-20 20:34 51.04650 -1.20588 19263 ft 384 kts 229°
2026-04-20 20:35 51.02721 -1.23527 19265 ft 384 kts 229°
2026-04-20 20:35 51.00821 -1.26428 19265 ft 384 kts 229°
2026-04-20 20:35 50.98897 -1.29364 19266 ft 384 kts 229°
2026-04-20 20:35 50.96957 -1.32283 19263 ft 385 kts 226°
2026-04-20 20:36 50.94777 -1.34798 19267 ft 390 kts 217°
2026-04-20 20:36 50.92436 -1.37005 19267 ft 392 kts 214°
2026-04-20 20:36 50.90028 -1.39057 19264 ft 394 kts 212°
2026-04-20 20:36 50.87584 -1.41019 19252 ft 394 kts 211°
2026-04-20 20:37 50.85124 -1.42942 19258 ft 394 kts 211°
2026-04-20 20:37 50.82662 -1.44854 19262 ft 394 kts 211°
2026-04-20 20:37 50.80202 -1.46772 19260 ft 394 kts 211°
2026-04-20 20:37 50.77746 -1.48698 19259 ft 394 kts 211°
2026-04-20 20:38 50.75294 -1.50631 19258 ft 394 kts 211°
2026-04-20 20:38 50.72846 -1.52567 19257 ft 394 kts 211°
2026-04-20 20:38 50.70396 -1.54506 19257 ft 394 kts 211°
2026-04-20 20:38 50.67949 -1.56443 19256 ft 394 kts 211°
2026-04-20 20:39 50.65501 -1.58379 19255 ft 394 kts 211°
2026-04-20 20:39 50.63051 -1.60314 19242 ft 394 kts 211°
2026-04-20 20:39 50.60605 -1.62243 19243 ft 393 kts 211°
2026-04-20 20:39 50.58166 -1.64164 19245 ft 392 kts 211°
2026-04-20 20:40 50.55723 -1.66084 19243 ft 392 kts 211°
2026-04-20 20:40 50.53281 -1.68003 19244 ft 393 kts 211°
2026-04-20 20:40 50.50837 -1.69920 19244 ft 393 kts 211°
2026-04-20 20:40 50.48391 -1.71837 19240 ft 393 kts 211°
2026-04-20 20:41 50.45947 -1.73750 19239 ft 393 kts 211°
2026-04-20 20:41 50.43503 -1.75661 19242 ft 392 kts 211°
2026-04-20 20:41 50.41060 -1.77568 19240 ft 392 kts 211°
2026-04-20 20:41 50.38619 -1.79472 18941 ft 390 kts 211°
2026-04-20 20:42 50.36184 -1.81369 18165 ft 393 kts 210°
2026-04-20 20:42 50.33736 -1.83275 17435 ft 392 kts 210°
2026-04-20 20:42 50.31302 -1.85165 16833 ft 388 kts 210°
2026-04-20 20:42 50.28897 -1.87031 16235 ft 384 kts 209°
2026-04-20 20:43 50.26512 -1.88879 15630 ft 381 kts 209°
2026-04-20 20:43 50.24144 -1.90712 15030 ft 378 kts 209°
2026-04-20 20:43 50.21797 -1.92528 14453 ft 375 kts 208°
2026-04-20 20:43 50.19468 -1.94328 13858 ft 372 kts 209°
2026-04-20 20:44 50.17156 -1.96112 13187 ft 370 kts 210°
2026-04-20 20:44 50.14851 -1.97891 12514 ft 369 kts 208°
2026-04-20 20:44 50.12562 -1.99654 11911 ft 365 kts 208°
2026-04-20 20:44 50.10298 -2.01397 11334 ft 361 kts 208°
2026-04-20 20:45 50.08049 -2.03126 10737 ft 359 kts 208°
2026-04-20 20:45 50.05839 -2.04823 10446 ft 348 kts 208°
2026-04-20 20:45 50.03717 -2.06451 10250 ft 334 kts 207°
2026-04-20 20:45 50.01668 -2.08020 10077 ft 321 kts 208°
2026-04-20 20:46 49.99708 -2.09523 9887 ft 308 kts 209°
2026-04-20 20:46 49.97961 -2.11309 9659 ft 295 kts 224°
2026-04-20 20:46 49.96537 -2.13551 9347 ft 289 kts 229°
2026-04-20 20:46 49.95215 -2.15866 9234 ft 286 kts 230°
2026-04-20 20:47 49.93925 -2.18155 9228 ft 286 kts 230°
2026-04-20 20:47 49.92596 -2.20504 9225 ft 285 kts 231°
2026-04-20 20:47 49.91301 -2.22781 9237 ft 285 kts 230°
2026-04-20 20:47 49.89987 -2.25084 9228 ft 285 kts 229°
2026-04-20 20:48 49.88671 -2.27382 9221 ft 285 kts 229°
2026-04-20 20:48 49.87339 -2.29705 9229 ft 284 kts 229°
2026-04-20 20:48 49.86044 -2.31961 9227 ft 284 kts 230°
2026-04-20 20:48 49.84732 -2.34244 9221 ft 284 kts 229°
2026-04-20 20:49 49.83396 -2.36497 9218 ft 284 kts 224°
2026-04-20 20:49 49.81887 -2.38471 8954 ft 284 kts 219°
2026-04-20 20:49 49.80325 -2.40339 8503 ft 284 kts 217°
2026-04-20 20:49 49.78740 -2.42173 8040 ft 284 kts 217°
2026-04-20 20:50 49.77147 -2.43992 7586 ft 285 kts 216°
2026-04-20 20:50 49.75551 -2.45799 7184 ft 284 kts 216°
2026-04-20 20:50 49.73962 -2.47593 6828 ft 281 kts 216°
2026-04-20 20:50 49.72383 -2.49373 6404 ft 282 kts 215°
2026-04-20 20:51 49.70800 -2.51154 6225 ft 282 kts 214°
2026-04-20 20:51 49.69201 -2.52948 6204 ft 284 kts 214°
2026-04-20 20:51 49.67604 -2.54741 6054 ft 284 kts 214°
2026-04-20 20:51 49.66003 -2.56536 5622 ft 284 kts 214°
2026-04-20 20:52 49.64408 -2.58323 5180 ft 284 kts 213°
2026-04-20 20:52 49.62814 -2.60105 4768 ft 282 kts 212°
2026-04-20 20:52 49.61229 -2.61877 4357 ft 281 kts 212°
2026-04-20 20:52 49.59649 -2.63640 3981 ft 279 kts 212°
2026-04-20 20:53 49.58084 -2.65387 3577 ft 278 kts 211°
2026-04-20 20:53 49.56523 -2.67128 3223 ft 276 kts 211°
2026-04-20 20:53 49.54996 -2.68833 3071 ft 265 kts 211°
2026-04-20 20:53 49.53540 -2.70459 3006 ft 251 kts 210°
2026-04-20 20:54 49.52192 -2.71964 2851 ft 242 kts 210°
2026-04-20 20:54 49.50830 -2.73475 2553 ft 240 kts 210°
2026-04-20 20:54 49.49476 -2.74975 2217 ft 240 kts 210°
2026-04-20 20:54 49.48126 -2.76471 2020 ft 237 kts 210°
2026-04-20 20:55 49.46789 -2.77954 1995 ft 238 kts 210°
2026-04-20 20:55 49.45443 -2.79443 1998 ft 239 kts 210°
2026-04-20 20:55 49.44091 -2.80938 2000 ft 240 kts 211°
2026-04-20 20:55 49.42742 -2.82432 2013 ft 239 kts 211°
2026-04-20 20:56 49.41396 -2.83931 2012 ft 239 kts 210°
2026-04-20 20:56 49.39974 -2.85143 2006 ft 229 kts 187°
2026-04-20 20:56 49.38465 -2.85092 2013 ft 212 kts 153°
2026-04-20 20:56 49.37325 -2.83841 2009 ft 199 kts 121°
2026-04-20 20:57 49.36836 -2.81903 2014 ft 195 kts 98°
2026-04-20 20:57 49.36890 -2.79831 2017 ft 196 kts 79°
2026-04-20 20:57 49.37293 -2.77820 2019 ft 198 kts 72°
2026-04-20 20:57 49.37887 -2.75904 2017 ft 201 kts 60°
2026-04-20 20:58 49.38807 -2.74262 2022 ft 206 kts 46°
2026-04-20 20:58 49.40018 -2.73050 2020 ft 212 kts 27°
2026-04-20 20:58 49.41499 -2.72682 2018 ft 220 kts
2026-04-20 20:58 49.42938 -2.72208 1776 ft 203 kts 39°
2026-04-20 20:59 49.43681 -2.70577 1644 ft 182 kts 82°
2026-04-20 20:59 49.43682 -2.68708 1577 ft 167 kts 94°
2026-04-20 20:59 49.43511 -2.67031 1395 ft 149 kts 100°
2026-04-20 20:59 49.43364 -2.65535 1144 ft 137 kts 90°
2026-04-20 21:00 49.43375 -2.64104 777 ft 131 kts 85°
2026-04-20 21:00 49.43421 -2.62744 500 ft 125 kts 86°
2026-04-20 21:00 49.43462 -2.61443 353 ft 121 kts 86°
2026-04-20 21:00 49.43490 -2.60315 315 ft 104 kts 90°
2026-04-20 21:01 49.43510 -2.59692 331 ft 15 kts 88°
2026-04-20 21:01 49.43512 -2.59623 329 ft 0 kts 88°